Weather History for KHLN - September, 2014

Change the Weather History Date:

Monday, September 8, 2014

  Actual Average Record
Temperature  
Mean Temperature 66 °F 61 °F  
Max Temperature 86 °F 76 °F 93 °F (1994)
Min Temperature 46 °F 46 °F 29 °F (1960)
Degree Days  
Heating Degree Days 0 5  
Month to date heating degree days 34 35  
Since 1 July heating degree days 81 104  
Cooling Degree Days 1 1  
Month to date cooling degree days 1 13  
Year to date cooling degree days 449 396  
Growing Degree Days 16 (Base 50)    
Moisture  
Dew Point 33 °F    
Average Humidity 40    
Maximum Humidity 71    
Minimum Humidity 9    
Precipitation  
Precipitation 0.00 in 0.04 in 0.66 in (1896)
Month to date precipitation 0.02 0.33  
Year to date precipitation 8.88 8.88  
Snow  
Snow 0.00 in 0.00 in 3.40 in (1896)
Month to date snowfall 0.0 0.2  
Since 1 July snowfall 0.0 0.5  
Since 1 September snowfall 0.0 0.2  
Snow Depth 0.00 in    
Sea Level Pressure  
Sea Level Pressure 29.82 in    
Wind  
Wind Speed 7 mph (NW)    
Max Wind Speed 25 mph    
Max Gust Speed 31 mph    
Visibility 10 miles    
Events      
T = Trace of Precipitation, MM = Missing Value Source: NWS Daily Summary

Daily Weather History Graph

Daily Weather History Graph

Search for Another Location

Airport or City:

Trip Planner

Search our weather history database for the weather conditions in past years. The results will help you decide how hot, cold, wet, or windy it might be!

Date:

Astronomy

Sep. 08, 2014 Rise Set
Actual Time 6:56 AM MDT 7:53 PM MDT
Civil Twilight 6:26 AM MDT 8:23 PM MDT
Nautical Twilight 5:49 AM MDT 9:00 PM MDT
Astronomical Twilight 5:10 AM MDT 9:39 PM MDT
Moon 7:33 PM MDT (9/8) 6:26 AM MDT (9/8)
Length of Visible Light 13h 57m
Length of Day
12h 56m
Full, 100% of the Moon is Illuminated
Sep 8
Full
Sep 8
Full
Sep 15
Last Quarter
Sep 24
New
Oct 1
First Quarter

Hourly Weather History & Observations

Time (MDT) Temp. Dew Point Humidity Pressure Visibility Wind Dir Wind Speed Gust Speed Precip Events Conditions
12:53 AM 57.9 °F 30.9 °F 36% 29.83 in 10.0 mi Calm Calm - N/A   Clear
1:53 AM 55.0 °F 32.0 °F 42% 29.83 in 10.0 mi Calm Calm - N/A   Clear
2:53 AM 51.8 °F 33.8 °F 50% 29.87 in 10.0 mi Calm Calm - N/A   Clear
3:53 AM 52.0 °F 33.1 °F 49% 29.82 in 10.0 mi Calm Calm - N/A   Clear
4:53 AM 52.0 °F 32.0 °F 47% 29.83 in 10.0 mi Calm Calm - N/A   Clear
5:53 AM 50.0 °F 32.0 °F 50% 29.86 in 10.0 mi Calm Calm - N/A   Clear
6:53 AM 48.0 °F 32.0 °F 54% 29.84 in 10.0 mi Calm Calm - N/A   Clear
7:53 AM 51.1 °F 34.0 °F 52% 29.87 in 10.0 mi Calm Calm - N/A   Clear
8:53 AM 51.1 °F 34.0 °F 52% 29.87 in 10.0 mi Calm Calm - N/A   Clear
9:53 AM 57.9 °F 34.0 °F 41% 29.86 in 10.0 mi Calm Calm - N/A   Clear
10:53 AM 64.0 °F 36.0 °F 35% 29.85 in 10.0 mi Calm Calm - N/A   Clear
11:53 AM 71.1 °F 35.1 °F 27% 29.81 in 10.0 mi East 4.6 mph - N/A   Clear
12:53 PM 77.0 °F 33.1 °F 20% 29.77 in 10.0 mi Calm Calm - N/A   Clear
1:53 PM 82.0 °F 28.9 °F 14% 29.75 in 10.0 mi West 8.1 mph 16.1 mph N/A   Clear
2:53 PM 84.9 °F 25.0 °F 11% 29.73 in 10.0 mi WNW 16.1 mph 23.0 mph N/A   Clear
3:53 PM 84.9 °F 23.0 °F 10% 29.71 in 10.0 mi West 13.8 mph 21.9 mph N/A   Clear
4:53 PM 84.0 °F 19.0 °F 9% 29.70 in 10.0 mi West 19.6 mph 26.5 mph N/A   Clear
5:53 PM 82.9 °F 18.0 °F 9% 29.70 in 10.0 mi WNW 16.1 mph 25.3 mph N/A   Clear
6:53 PM 80.1 °F 17.1 °F 9% 29.72 in 10.0 mi WNW 15.0 mph 23.0 mph N/A   Clear
7:23 PM 69.8 °F 42.8 °F 38% 29.78 in 10.0 mi North 17.3 mph 21.9 mph N/A   Clear
7:53 PM 64.9 °F 43.0 °F 45% 29.80 in 10.0 mi NNW 15.0 mph - N/A   Clear
8:53 PM 61.0 °F 44.1 °F 54% 29.87 in 10.0 mi WNW 9.2 mph - N/A   Clear
9:53 PM 55.9 °F 44.1 °F 64% 29.91 in 10.0 mi NNW 10.4 mph - N/A   Clear
10:53 PM 51.8 °F 42.8 °F 71% 29.94 in 10.0 mi NW 15.0 mph - N/A   Clear
11:53 PM 48.0 °F 39.0 °F 71% 29.96 in 10.0 mi NW 15.0 mph - N/A   Clear